Regional Weather Roundup
Issued by NWS

Home | Current Version | Previous Version | Graphics & Text | Print | Product List | Glossary On
Versions: 1 2 3 4 5 6 7 8 9 10 11 12 13 14 15 16 17 18 19 20 21 22 23 24 25 26 27
000
ASUS43 KDMX 191707
RWRIA

WEATHER ROUNDUP FOR IOWA
NATIONAL WEATHER SERVICE DES MOINES IA
1200 PM CDT SAT APR 19 2014

NOTE: "FAIR" INDICATES FEW OR NO CLOUDS BELOW 12,000 FEET WITH NO
SIGNIFICANT WEATHER AND/OR OBSTRUCTIONS TO VISIBILITY.

* - THESE STATIONS ARE NOT NWS STATIONS...THUS NOT UNDER NWS
QUALITY CONTROL.  THEY ALSO DO NOT REPORT WEATHER SUCH
AS PRECIPITATION OR FOG.

IAZ001>003-012>014-020>022-031>034-043>046-191800-
   NORTHWEST IOWA

CITY           SKY/WX    TMP DP  RH WIND       PRES   REMARKS
CARROLL *      MOSUNNY   73  43  33 S25G35    30.05F
CHEROKEE *     MOSUNNY   72  45  37 SW26G35   30.01S
DENISON *      MOSUNNY   72  43  35 S25G36    30.03F
LE MARS *      SUNNY     70  46  43 SW17G31   30.00S
ORANGE CITY *  SUNNY     70  45  40 SW18G28   30.00S
SHELDON *      SUNNY     68  46  45 SW16G30   29.99F
SIOUX CITY     MOSUNNY   73  46  38 SW20G31   30.01F
SPENCER        MOSUNNY   72  44  36 S28G38    30.01S
STORM LAKE *   SUNNY     72  43  35 SW30G38   30.01F
$$

IAZ055>058-069>071-079>083-090>094-191800-
   SOUTHWEST IOWA

CITY           SKY/WX    TMP DP  RH WIND       PRES   REMARKS
ATLANTIC *     SUNNY     72  43  35 S21G31    30.07F
AUDUBON *      SUNNY     73  36  25 S16G26    30.08F
CLARINDA *     SUNNY     73  43  33 S24G31    30.10F
COUNCIL BLFS * SUNNY     72  46  40 SW26G32   30.04F
CRESTON *      SUNNY     72  45  37 SW18G29   30.13S
HARLAN  *      SUNNY     72  45  37 S25G32    30.08F
LAMONI         MOSUNNY   69  43  38 S10G22    30.16S
RED OAK *      SUNNY     72  45  37 S24G33    30.07F
SHENANDOAH *   SUNNY     75  43  31 S26G36    30.07F
$$

IAZ047>049-059>061-072>074-084-191800-
   CENTRAL IOWA

CITY           SKY/WX    TMP DP  RH WIND       PRES   REMARKS
AMES           MOSUNNY   67  42  40 S20G25    30.12F
ANKENY *       SUNNY     68  45  42 S12G23    30.13F
CHARITON *     SUNNY     70  45  40 S17       30.16F
DES MOINES     CLOUDY    70  43  37 S18       30.14F
GRINNELL*      SUNNY     64  41  42 SE18      30.18F
KNOXVILLE *    SUNNY     68  43  40 S16G23    30.16F
MARSHALLTOWN   MOSUNNY   63  40  42 S22       30.16F
NEWTON *       SUNNY     66  41  39 S17G24    30.17F
PELLA *        SUNNY     68  43  40 SE16      30.18F
PERRY *          N/A     72  37  28 S24       30.10F
$$

IAZ004>006-015-016-023>025-035-036-191800-
   NORTH CENTRAL IOWA

CITY           SKY/WX    TMP DP  RH WIND       PRES   REMARKS
ALGONA *       SUNNY     68  41  37 S30G38    30.04F
CLARION *      MOSUNNY   66  41  39 S26G35    30.09F
ESTHERVILLE    SUNNY     68  43  40 S31G41    30.01F
FORT DODGE *   PTSUNNY   70  45  40 S15G29    30.09F
MASON CITY     MOSUNNY   59  40  49 SE24G32   30.11F
FOREST CITY *  SUNNY     61  41  48 S23G33    30.07F
IOWA FALLS *     N/A     64  41  42 SE21      30.15F
$$

IAZ007>011-017>019-026>030-037>042-050>054-066-191800-
   NORTHEAST IOWA

CITY           SKY/WX    TMP DP  RH WIND       PRES   REMARKS
CEDAR RAPIDS   SUNNY     61  31  32 SE17G26   30.22F
CHARLES CITY * SUNNY     59  39  47 S18G28    30.15F
CLINTON *      MOSUNNY   61  34  36 SE15      30.31F
DECORAH *      SUNNY     57  32  38 S16G30    30.17F
DUBUQUE        SUNNY     58  32  37 SE16G24   30.26F
MONTICELLO *   SUNNY     59  32  36 SE21      30.25F
OELWEIN *      SUNNY    N/A N/A N/A S24       30.21F
WATERLOO       MOSUNNY   61  33  35 SE15      30.18F
$$

IAZ064-065-067-068-078-191800-
   EAST CENTRAL IOWA

CITY           SKY/WX    TMP DP  RH WIND       PRES   REMARKS
DAVENPORT      SUNNY     64  28  25 S16       30.28F
IOWA CITY      SUNNY     62  34  35 SE15      30.25F
MT. PLEASANT * SUNNY     68  34  28 S14G20    30.25F
MUSCATINE *    SUNNY     66  32  28 S15G21    30.25F
QUAD CITIES    SUNNY     65  28  24 SE12      30.28F
$$

IAZ062-063-075>077-085>089-095>099-191800-
   SOUTHEAST IOWA

CITY           SKY/WX    TMP DP  RH WIND       PRES   REMARKS
BURLINGTON     SUNNY     66  37  34 S7        30.26S
FAIRFIELD *    SUNNY     66  39  37 SE16G24   30.23F
FORT MADISON * SUNNY     68  39  34 SE12      30.26S
KEOKUK *       SUNNY     68  41  37 S10G17    30.24F
OSKALOOSA *      N/A     68  41  37 S17       30.20F
CENTERVILLE *  SUNNY     72  45  37 SE13      30.20F
OTTUMWA        SUNNY     67  40  37 S17       30.21F
WASHINGTON *   SUNNY     68  36  30 SE16G24   30.23F
$$

ABBREVIATIONS USED IN REMARKS
   TC - TEMPERATURES IN CELSIUS
  WCI - WIND CHILL INDEX
   HX - HEAT INDEX
  VSB - VISIBILITY
$$




USA.gov is the U.S. government's official web portal to all federal, state and local government web resources and services.